| time (UTC) | temp F | wind direction | speed MPH | gust MPH | rain 1hr in | rain 24hr in | rain mn in | humidity % | barometer mb |
| 20260502213016 | 51 | 222 | 5.0 | 10.0 | 0.00 | 0.00 | 0.00 | 93 | 1013.0 |
| 20260502211518 | 51 | 213 | 7.0 | 13.0 | 0.00 | 0.00 | 0.00 | 93 | 1013.2 |
| 20260502210024 | 51 | 231 | 8.0 | 14.0 | 0.00 | 0.00 | 0.00 | 92 | 1013.3 |
| 20260502204517 | 51 | 228 | 9.0 | 17.0 | 0.00 | 0.00 | 0.00 | 92 | 1013.3 |
| 20260502203015 | 51 | 214 | 6.0 | 11.0 | 0.00 | 0.00 | 0.00 | 92 | 1013.4 |
| 20260502201513 | 52 | 211 | 5.0 | 12.0 | 0.00 | 0.00 | 0.00 | 91 | 1013.4 |
| 20260502200013 | 52 | 202 | 8.0 | 19.0 | 0.00 | 0.00 | 0.00 | 90 | 1013.4 |
| 20260502194513 | 52 | 221 | 8.0 | 13.0 | 0.00 | 0.00 | 0.00 | 90 | 1013.2 |
| 20260502193012 | 52 | 219 | 7.0 | 13.0 | 0.00 | 0.00 | 0.00 | 90 | 1013.3 |
| 20260502191517 | 52 | 203 | 11.0 | 18.0 | 0.00 | 0.00 | 0.00 | 91 | 1013.2 |
| 20260502190010 | 52 | 207 | 8.0 | 18.0 | 0.00 | 0.00 | 0.00 | 91 | 1013.3 |
| 20260502184514 | 52 | 165 | 9.0 | 18.0 | 0.00 | 0.00 | 0.00 | 90 | 1013.3 |
| 20260502183010 | 52 | 198 | 10.0 | 19.0 | 0.00 | 0.00 | 0.00 | 90 | 1013.2 |
| 20260502181508 | 52 | 212 | 9.0 | 20.0 | 0.00 | 0.00 | 0.00 | 90 | 1013.2 |
| 20260502163003 | 54 | 199 | 10.0 | 23.0 | 0.00 | 0.00 | 0.00 | 86 | 1013.6 |
| 20260502161501 | 55 | 217 | 11.0 | 22.0 | 0.00 | 0.00 | 0.00 | 84 | 1014.0 |
| 20260502151554 | 58 | 213 | 13.0 | 30.0 | 0.00 | 0.00 | 0.00 | 79 | 1015.0 |
| 20260502123045 | 62 | 186 | 13.0 | 27.0 | 0.00 | 0.00 | 0.00 | 73 | 1017.6 |
| 20260502121541 | 62 | 360 | 12.0 | 22.0 | 0.00 | 0.00 | 0.00 | 71 | 1017.9 |
| 20260502114530 | 62 | 360 | 13.0 | 29.0 | 0.00 | 0.00 | 0.00 | 72 | 1018.4 |
| 20260502113028 | 61 | 198 | 14.0 | 26.0 | 0.00 | 0.00 | 0.00 | 74 | 1018.7 |
| 20260502111526 | 60 | 206 | 11.0 | 23.0 | 0.00 | 0.00 | 0.00 | 76 | 1018.9 |
| 20260502110031 | 60 | 168 | 11.0 | 21.0 | 0.00 | 0.00 | 0.00 | 76 | 1019.2 |
| 20260502104521 | 60 | 200 | 10.0 | 21.0 | 0.00 | 0.00 | 0.00 | 75 | 1019.4 |
| 20260502103022 | 60 | 203 | 10.0 | 21.0 | 0.00 | 0.00 | 0.00 | 75 | 1019.6 |
| 20260502101519 | 59 | 223 | 11.0 | 20.0 | 0.00 | 0.00 | 0.00 | 76 | 1019.6 |
| 20260502091510 | 59 | 219 | 7.0 | 11.0 | 0.00 | 0.00 | 0.00 | 79 | 1020.1 |
| 20260502070047 | 56 | 235 | 3.0 | 8.0 | 0.00 | 0.00 | 0.00 | 80 | 1021.1 |
| 20260502064543 | 55 | 240 | 3.0 | 7.0 | 0.00 | 0.00 | 0.00 | 81 | 1021.1 |
| 20260502063047 | 54 | 233 | 3.0 | 6.0 | 0.00 | 0.00 | 0.00 | 83 | 1021.2 |
| 20260502061539 | 54 | 219 | 2.0 | 5.0 | 0.00 | 0.00 | 0.00 | 83 | 1021.4 |
| 20260502060034 | 53 | 212 | 2.0 | 8.0 | 0.00 | 0.00 | 0.00 | 84 | 1021.5 |
| 20260502054536 | 53 | 236 | 4.0 | 9.0 | 0.00 | 0.00 | 0.00 | 85 | 1021.5 |
| 20260502053026 | 53 | 234 | 4.0 | 7.0 | 0.00 | 0.00 | 0.00 | 85 | 1021.3 |
| 20260502051520 | 53 | 211 | 3.0 | 5.0 | 0.00 | 0.00 | 0.00 | 84 | 1021.2 |
| 20260502050024 | 53 | 215 | 2.0 | 5.0 | 0.00 | 0.00 | 0.00 | 85 | 1021.2 |
| 20260502044512 | 52 | 198 | 3.0 | 8.0 | 0.00 | 0.00 | 0.00 | 85 | 1021.2 |
| 20260502043009 | 51 | 229 | 2.0 | 4.0 | 0.00 | 0.00 | 0.00 | 85 | 1021.3 |
| 20260502041507 | 50 | 182 | 1.0 | 4.0 | 0.00 | 0.00 | 0.00 | 87 | 1021.2 |
| 20260502033058 | 50 | 269 | 0.0 | 3.0 | 0.00 | 0.00 | 0.00 | 88 | 1021.2 |
| 20260502031555 | 51 | 243 | 3.0 | 9.0 | 0.00 | 0.00 | 0.00 | 85 | 1021.3 |
| 20260502030151 | 51 | 277 | 4.0 | 11.0 | 0.00 | 0.00 | 0.00 | 86 | 1021.4 |
| 20260502023049 | 50 | 240 | 3.0 | 9.0 | 0.00 | 0.00 | 0.00 | 88 | 1021.5 |
| 20260502021542 | 50 | 256 | 3.0 | 11.0 | 0.00 | 0.00 | 0.00 | 86 | 1021.5 |
| 20260502020038 | 49 | 248 | 3.0 | 12.0 | 0.00 | 0.00 | 0.00 | 89 | 1021.5 |
| 20260502014536 | 44 | 271 | 1.0 | 4.0 | 0.00 | 0.00 | 0.00 | 95 | 1021.7 |
| 20260502013043 | 41 | 288 | 1.0 | 6.0 | 0.00 | 0.00 | 0.00 | 97 | 1021.6 |
| 20260502011534 | 41 | 236 | 0.0 | 3.0 | 0.00 | 0.00 | 0.00 | 96 | 1021.7 |
| 20260502010029 | 41 | 182 | 0.0 | 3.0 | 0.00 | 0.00 | 0.00 | 96 | 1021.8 |
| 20260502004546 | 42 | 178 | 0.0 | 2.0 | 0.00 | 0.00 | 0.00 | 96 | 1021.9 |
| 20260502003026 | 42 | 178 | 1.0 | 3.0 | 0.00 | 0.00 | 0.00 | 96 | 1021.9 |
| 20260502001526 | 42 | 179 | 1.0 | 2.0 | 0.00 | 0.00 | 0.00 | 96 | 1021.9 |
| 20260502000027 | 43 | 179 | 0.0 | 2.0 | 0.00 | 0.00 | 0.00 | 95 | 1022.1 |
| 20260501234527 | 43 | 179 | 1.0 | 2.0 | 0.00 | 0.00 | 0.00 | 95 | 1022.1 |
| 20260501233020 | 44 | 179 | 0.0 | 3.0 | 0.00 | 0.00 | 0.00 | 95 | 1022.1 |
| 20260501231524 | 44 | 179 | 1.0 | 2.0 | 0.00 | 0.00 | 0.00 | 94 | 1022.1 |
| 20260501230015 | 45 | 179 | 1.0 | 3.0 | 0.00 | 0.00 | 0.00 | 94 | 1022.0 |
| 20260501224514 | 45 | 180 | 1.0 | 3.0 | 0.00 | 0.00 | 0.00 | 95 | 1022.1 |
| 20260501223013 | 45 | 180 | 0.0 | 4.0 | 0.00 | 0.00 | 0.00 | 95 | 1022.3 |
| 20260501221511 | 45 | 180 | 1.0 | 3.0 | 0.00 | 0.00 | 0.00 | 95 | 1022.2 |
| 20260501220008 | 45 | 180 | 0.0 | 1.0 | 0.00 | 0.00 | 0.00 | 95 | 1022.2 |
| 20260501214507 | 46 | 180 | 1.0 | 3.0 | 0.00 | 0.00 | 0.00 | 94 | 1022.1 |